User: anonymous   Login
Location: Chiroubles
(46.1812°N, 4.6660°E)
Time: 15:21:10
(UTC+00:00)
Language:

S-56A Canister/Altair - Orbit

View from above orbital plane
View from above orbital plane
View from above satellite
View from above satellite

Ground track
Ground track

The orbit data is extracted from the following two-line orbital elements,

1    82U 61004B   20330.96612589 -.00000101 +00000-0 -40708-4 0  9992
2    82 038.8574 320.3254 1174826 143.1487 225.6058 12.26054970827633
Epoch (UTC): 25 November 2020 23:11:13
Eccentricity: 0.1174826
inclination: 38.8574°
perigee height: 633 km
apogee height: 2499 km
right ascension of ascending node: 320.3254°
argument of perigee: 143.1487°
revolutions per day: 12.26054970
mean anomaly at epoch: 225.6058°
orbit number at epoch: 82763

The dashed part of the orbit path shows where the satellite is in the earth's shadow,  

DLR